Погода в Погребняках

Украина / Полтавская область     49°35′07″N   32°47′43″E
темп.,
°C
ветер,
м/с
пор.,
м/с
влажн.,
%
обл.,
%
осадки,
мм/ч
давл.,
гПа
погр.,
м
24 января, пн
пн2423:00−5ссв51089100 0.0 1027679
02:00−7ссв6129179 0.1 1028398
05:00−8с71590100 0.0 1028425
08:00−7с8178995 0.0 1029530
11:00−5ссв81484100 0.0 1028634
14:00−5ссв71193100 0.4 1028585
17:00−5с61294100 1.0 1028555
20:00−6ссв61191100 1.1 1028456
25 января, вт
вт2523:00−6с5993100 0.0 1028418
02:00−8с4895100 0.0 1028275
05:00−10с379645 0.0 1027174
08:00−11ссз369655 0.0 1026160
11:00−8с358498 0.0 1026323
14:00−6ссз2380100 0.0 1024416
17:00−9сз249390 0.0 102359
20:00−10з009752 0.0 102210
26 января, ср
ср2623:00−11юз2297100 0.0 102117
02:00−9ю2496100 0.0 102071
05:00−8ююз2393100 0.0 101888
08:00−8ююв1290100 0.0 101958
11:00−6юв2279100 0.0 1020257
14:00−5ссв0175100 0.0 1020376
17:00−7ссз229688 0.0 102136
20:00−8сз259882 0.1 102275
27 января, чт
чт2723:00−6ссз2595100 0.1 1022196
02:00−6зсз2396100 0.1 1022107
05:00−8зсз3595100 0.0 102192
08:00−8юз2495100 0.0 1020131
11:00−6ююз4586100 0.0 1019288
14:00−4ююз588071 0.0 1017471
17:00−4ююз499697 0.1 1016336
20:00−4ююз489684 0.5 1015237
28 января, пт
пт2823:00−3ююз3797100 0.1 1014179
02:00−2ююз4896100 0.2 1013245
05:00−1ююз61197100 0.1 1011381
08:000юз61298100 1.1 1009548
11:00+1зюз71295100 0.4 1009796
14:00+1з71396100 0.4 1008830
17:000зюз7148894 0.1 1008489
20:000зюз8169181 0.2 1008750